Location: ??
(34.7252°N, 135.5457°E)
Time: 18:14:29
(UTC+00:00)

Cosmos 2219 Rocket - Pass Details

Date: 24 September 2020
Orbit: 827 x 847 km, 71.0° (Epoch: 27 October)

Event Time Altitude Azimuth Distance (km) Brightness Sun altitude
Rises 18:45:21 0° 172° (S) 3,377 5.2 -25.6°
Reaches altitude 10° 18:48:03 10° 161° (SSE) 2,449 4.6 -25.1°
Maximum altitude 18:52:50 29° 103° (ESE) 1,491 4.0 -24.2°
Drops below altitude 10° 18:57:39 10° 44° (NE) 2,471 5.4 -23.2°
Sets 19:00:23 0° 34° (NE) 3,411 6.1 -22.7°
